Location: Leiter
(44.7178°N, 106.2687°W)
Time: 14:50:54
(UTC+00:00)

STARS - Pass Details

Date: 10 July 2022
Orbit: 620 x 637 km, 98.2° (Epoch: 18 August)

Event Time Altitude Azimuth Distance (km) Brightness Sun altitude
Rises 06:10:19 0° 9° (N) 2,924 ? -21.7°
Reaches altitude 10° 06:12:32 10° 6° (N) 2,010 ? -21.8°
Maximum altitude 06:16:50 59° 288° (WNW) 721 ? -21.9°
Enters shadow 06:17:59 43° 232° (SW) 879 ? -22.0°
